Presure
120 111 114 109 105 110 118 120 115 104 127 126 138 121 119 148 148 155 153 151 139 118 144 134 128 123 171 169 141 151 119 145 129 139 177 169 128 186 142 165 181 170 144 163 182
147 143 143 182 170 148 137 225 133 139 123 132 132 146 148 174 153 115 113 148 158 125 125 141 129 147 131 130 185 104 110 156 134 169 139 157 168 190 181 183 166 173 173 176 157
179 185 121 134 139 132 136 140 156 147 129 128 121 131 133 126 130 170 165 138 133 122 131 137 148 150 144 134 139 134 157 173 163 177 153 184 159 183 160 141 146 150 147 142 159
177 188 194 153 129 138 142 164 205 164 187 198 189 207 214 152 155 153 155 152 160 153 153 176 179 140 164 182 171 135 120 144 180 192 186 177 149 148 171 154 164 192 173 162 177
116 126 117 137 133 122 125 133 114 132 199 131 152 175 192 185 176 148 152 153 162 182 172 188 176 185 183 183 190 191 185 187 156 186 181 184 175 173 168 181 181 162 177 173 177
163 137 138 157 185 206 195 188 220 206 183 143 163 203 193 186 122 168 190 187 175 173 165 187 170 164 174 174 170 187 182 173 174 162 149 173 178 169 176 160 184 186 173 169 173
184 184 191 189 237 192 208 194 166 215 217 214 220 175 191 191 196 191 190 172 182 180 154 188 175 185 184 172 182 178 177 160 154 177 176 171 163 174 171 191 194 190 170 174 178
156 181 197 150 163 150 194 191 206 209 173 224 222 205 227 207 211 200 209 201 196 204 195 196 185 194 158 183 171 162 165 170 176 177 174 181 187 189 186 193 197 184 200 198 195
173 160 194 203 219 204 242 176 202 223 218 218 236 200 204 210 195 225 202 171 208 197 204 198 205 190 181 173 175 179 187 177 180 185 191 194 190 194 223 230 207 213 209 203 204
183 185 185 208 190 219 210 200 201 195 177 197 200 170 217 213 213 209 209 211 213 211 209 210 200 206 205 198 201 208 203 200 195 172 192 222 213 169 168 190 191 190 196 203 195
176 184 201 146 212 192 188 201 192 182 192 194 159 174 184 187 184 181 143 186 187 184 175 150 163 179 192 194 182 220 212 216 209 216 209 206 196 188 179 193 164 189 190 177 196
183 198 201 205 201 204 151 144 192 184 189 199 196 206 194 192 194 204 202 200 191 187 167 174 182 203 205 210 191 187 178 191 206 201 203 197 192 186 179 183 180 186 179 196 197
202 201 196 203 169 192 177 196 202 188 165 179 179 190 191 189 202 205 209 203 200 188 167 184 173 190 198 200 183 192 201 188 183 194 192 192 178 172 186 183 181 188 191 184 187
157 195 193 182 173 179 182 183 186 194 166 164 156 196 182 188 190 210 204 192 197 227 162 203 198 191 194 193 196 201 204 206 205 205 200 210 206 179 181 183 190 194 189 182 193
203 190 176 171 190 194 177 191 191 195 180 195 194 195 200 195 205 194 201 208 205 207 200 233 222 215 212 209 207 209 209 212 199 207 205 204 208 204 193 178 196 196 84 92 167
180 182 187 131 190 167 191 188 195 197 201 204 191 195 198 202 188 190 194 203 205 207 235 244 236 216 221 221 224 222 219 223 226 227 227 217 219 222 158 117 78 212 213 207 161
192 180 190 192 186 198 204 209 202 193 202 203 200 211 205 212 204 219 221 228 202 229 229 214 231 212 243 225 242 237 227 231 237 243 247 249 252 250 177 138 216 222 225 136 232
191 163 178 169 173 184 173 207 226 225 195 207 211 218 218 243 277 268 256 248 241 244 248 261 227 247 240 204 211 204 256 235 254 220 216 249 213 220 222 255 266 245 71 231 228
155 206 225 221 224 226 217 158 215 217 212 215 261 271 247 271 260 266 269 267 261 250 254 263 223 254 224 209 242 263 259 216 221 229 274 279 294 236 356 294 235 212 210 90 255
196 204 208 195 231 239 222 199 226 259 279 278 211 224 281 262 204 265 216 261 244 239 270 226 227 273 247 177 242 271 281 287 314 351 350 326 296 355 356 353 344 342 317 209 295
206 204 219 208 224 249 256 303 223 288 267 233 215 216 226 260 262 271 230 228 224 231 231 238 242 304 317 380 384 315 302 271 277 321 346 353 357 264 344 336 334 333 143 84 324
222 214 151 217 218 232 214 212 228 219 208 216 213 215 219 225 229 232 239 228 260 298 295 415 412 419 422 422 412 399 386 372 354 349 350 341 355 341 333 335 332 74 335 336 322
229 238 222 233 236 234 239 247 218 223 249 239 261 221 228 257 250 236 222 298 294 313 313 309 299 294 292 282 276 271 270 275 279 287 355 335 144 338 336 340 343 335 326 122 64
210 229 272 187 222 221 231 229 231 280 243 265 283 242 227 228 229 254 280 293 277 263 290 283 280 278 272 270 267 257 251 251 255 257 257 290 347 333 336 335 328 324 321 240 326
240 192 234 222 240 252 235 224 224 228 231 240 239 236 275 293 303 302 293 271 260 249 279 285 276 258 249 248 247 244 235 236 237 242 255 242 244 243 256 270 265 277 268 262 259
156 231 223 250 250 245 294 295 247 270 238 304 310 241 247 296 348 284 367 335 310 290 282 265 251 247 239 236 233 237 236 407 405 348 325 296 249 241 238 233 234 233 233 233 236
241 232 302 312 296 316 314 317 320 320 317 309 293 322 331 273 289 322 316 295 268 254 246 244 237 233 241 241 264 321 307 306 319 385 381 376 326 276 262 257 252 251 249 248 250
Wind_Speed
36 35 37 37 38 40 42 43 42 42 45 46 49 45 46 57 57 61 63 64 54 47 59 56 51 51 59 60 61 63 56 58 54 59 47 50 57 50 64 58 49 46 55 55 45
52 53 53 42 39 43 49 34 49 52 46 49 52 57 58 63 58 50 49 58 62 52 53 56 56 61 53 53 54 58 63 72 57 53 65 66 58 47 51 50 63 56 56 53 62
51 46 44 51 52 51 53 55 53 51 51 50 49 53 50 51 53 64 71 58 58 57 58 63 70 73 72 57 62 59 76 67 72 56 74 54 66 53 65 66 62 61 61 60 72
39 35 45 65 53 58 59 69 42 42 52 50 47 41 42 66 74 69 73 69 76 75 75 71 68 65 80 65 73 63 63 67 62 56 57 60 71 70 66 76 75 60 62 75 60
40 53 44 54 58 50 50 60 51 60 47 61 63 58 52 65 54 56 73 72 74 69 80 65 75 67 68 67 64 61 67 62 64 63 65 62 66 62 76 70 66 77 67 71 68
63 75 61 67 61 51 55 60 47 49 56 69 71 53 60 69 57 68 64 66 69 75 70 70 75 72 78 78 79 67 69 65 73 72 67 73 67 71 79 72 72 71 75 78 75
50 48 57 53 58 60 44 48 74 47 47 49 49 65 64 67 64 65 67 74 72 73 84 71 77 70 68 83 72 75 74 73 85 80 76 79 77 76 79 77 75 74 80 80 78
53 55 65 76 76 78 46 46 46 46 67 51 52 52 55 62 62 65 67 69 70 70 71 72 73 71 76 75 73 90 87 84 83 84 83 82 72 78 81 83 82 81 82 80 79
55 64 65 62 60 45 36 50 41 47 47 47 48 54 58 58 60 59 64 68 66 70 71 72 70 77 80 87 82 83 81 85 83 86 85 82 78 81 70 68 75 71 75 78 76
65 70 60 60 57 46 47 43 44 48 56 48 50 59 44 47 48 51 52 53 56 59 61 64 69 70 77 80 79 78 77 79 82 80 80 67 63 70 73 67 70 73 72 72 73
64 72 74 71 51 42 45 43 49 50 52 51 63 61 57 60 63 65 61 67 67 66 68 66 70 71 76 77 73 72 75 73 79 71 70 69 66 70 74 69 75 74 74 76 74
73 75 69 62 57 50 53 57 47 48 54 54 52 51 58 61 65 64 65 68 71 72 67 71 76 73 74 73 79 79 75 77 75 75 74 73 69 73 79 76 80 81 78 77 77
63 63 67 63 56 55 50 57 54 53 59 61 65 65 64 64 66 66 66 72 74 75 66 75 77 82 82 81 79 83 84 83 80 82 79 76 69 75 80 85 87 87 85 77 80
54 62 62 60 50 54 57 58 59 65 59 63 65 72 69 70 71 68 72 76 79 74 63 82 85 84 86 87 89 86 90 90 91 89 83 85 80 78 84 92 92 92 87 81 88
57 62 59 58 70 72 64 71 73 74 63 72 76 80 81 78 77 73 77 78 78 80 87 80 86 89 91 94 94 92 93 94 93 94 91 88 90 78 89 87 92 92 33 44 74
71 72 77 56 78 68 81 76 82 83 86 84 79 80 80 79 78 80 83 83 83 84 83 80 84 89 88 94 99 101 101 102 103 103 97 96 99 91 69 43 24 95 100 97 71
78 72 81 83 79 85 89 92 90 83 85 84 83 85 82 89 86 96 97 98 87 91 84 82 83 85 90 93 97 103 103 106 107 111 110 108 110 106 78 56 97 97 95 59 107
84 64 73 71 77 82 73 84 94 94 84 87 90 88 84 94 77 79 85 87 92 91 88 87 86 89 88 91 94 94 102 102 107 94 91 99 87 89 91 104 106 105 29 103 103
69 87 92 93 92 90 85 59 83 87 86 89 97 90 92 74 77 73 75 80 84 88 90 90 80 92 87 90 94 98 102 99 102 102 107 104 101 95 83 84 90 92 91 37 107
91 94 93 82 87 91 89 80 86 93 92 85 83 82 71 78 82 77 82 83 85 88 92 86 82 94 90 71 96 104 107 106 97 86 85 87 93 76 72 69 71 74 81 90 88
91 93 94 90 94 96 96 84 85 76 78 86 84 81 85 78 79 82 83 84 83 83 85 87 84 100 100 79 76 84 86 94 95 85 82 79 72 54 72 73 73 69 24 22 73
98 94 61 92 94 95 86 86 86 87 86 87 85 84 85 85 85 87 87 85 88 91 88 62 66 65 65 63 67 69 71 72 76 78 77 78 70 72 74 75 73 19 73 71 74
101 97 94 92 91 90 92 90 88 89 87 88 84 87 87 85 87 87 87 83 82 76 72 67 67 68 61 62 66 70 73 73 74 75 72 74 30 72 74 73 71 67 68 30 23
94 95 86 77 88 89 90 90 89 76 87 82 81 85 86 86 87 85 82 77 78 81 73 73 70 70 72 70 71 71 76 81 82 79 81 74 67 67 69 67 65 63 63 50 66
93 72 87 85 84 83 84 88 88 86 86 84 85 85 86 85 83 80 77 74 77 82 74 71 67 75 78 81 83 81 80 87 89 87 86 79 77 77 72 68 67 66 66 66 67
58 90 88 84 82 82 80 81 84 84 84 87 86 82 85 78 76 70 63 63 63 65 68 71 75 78 80 86 85 85 91 57 59 74 78 80 82 82 80 79 77 76 75 73 74
93 92 84 79 82 80 82 86 89 89 86 85 81 75 71 71 67 61 57 57 62 68 73 76 81 84 84 90 84 61 65 66 61 56 57 57 71 84 86 86 84 84 83 84 83
Wind_Direction
291 290 288 290 287 286 288 288 287 283 288 287 286 286 285 286 283 279 281 286 287 280 291 293 287 284 281 282 282 289 277 284 282 290 279 280 281 279 292 284 281 275 288 290 271
281 286 286 307 310 285 288 314 286 288 288 288 288 288 282 279 281 281 279 287 285 278 285 280 277 286 284 270 279 268 275 287 286 282 289 289 283 276 275 275 283 278 281 276 283
271 278 295 292 292 295 293 292 290 289 289 286 285 292 283 287 287 276 282 287 286 279 286 291 291 290 292 285 290 283 286 279 284 274 289 274 287 271 285 273 290 288 286 277 288
317 314 321 290 292 296 295 287 291 281 273 272 268 270 276 289 289 286 287 289 289 289 291 278 276 284 286 274 280 282 269 287 273 274 274 273 292 293 276 286 285 284 268 279 276
292 298 290 288 295 291 289 294 281 293 288 284 285 274 270 276 275 271 287 291 287 272 283 270 279 271 271 272 274 275 273 274 280 275 272 271 273 272 283 280 275 279 280 271 274
288 299 280 288 309 296 288 287 291 288 280 281 290 272 267 273 272 282 267 268 281 283 284 274 284 284 276 278 283 273 274 275 274 276 288 277 279 281 277 280 281 281 275 275 275
316 312 315 309 317 306 294 287 286 288 285 280 279 288 273 272 271 272 271 282 272 275 291 272 278 270 272 279 273 275 274 274 289 277 279 280 283 280 279 282 279 276 279 279 278
280 310 318 301 293 289 293 292 291 287 291 284 283 276 275 272 273 275 272 274 277 274 273 272 271 271 284 270 279 285 282 280 278 280 282 282 284 283 282 281 278 278 276 275 275
302 285 317 320 321 308 320 290 293 288 287 288 292 287 285 283 281 280 278 282 275 273 272 272 272 270 271 277 277 277 277 279 279 280 281 282 282 279 271 270 271 273 272 270 271
309 309 312 319 306 314 312 304 299 294 287 292 293 289 287 284 283 283 284 283 280 278 279 277 274 274 272 273 273 274 273 273 273 280 279 278 275 281 280 277 276 276 275 273 274
305 309 314 295 311 303 304 304 300 297 295 295 284 288 287 284 282 283 290 285 281 281 283 283 282 281 277 275 279 278 275 276 275 274 274 274 275 277 279 277 279 277 275 277 278
305 308 308 309 309 304 293 296 302 296 299 300 296 297 291 289 288 287 286 285 282 283 285 284 282 279 279 279 276 277 279 278 276 278 276 276 277 279 282 282 279 276 278 277 277
302 300 305 306 301 308 300 306 304 298 297 298 298 297 293 290 292 290 289 286 284 283 284 282 284 283 281 278 279 278 277 278 282 278 279 276 280 282 277 276 276 277 278 282 281
302 302 304 306 296 300 306 302 303 304 292 288 295 298 294 293 292 292 289 288 288 293 282 280 280 281 280 280 280 276 276 275 274 275 277 273 271 277 275 274 275 276 278 281 278
304 304 307 303 305 305 303 305 304 305 297 301 298 298 298 297 296 291 292 290 289 285 287 277 276 278 279 279 280 277 276 275 281 278 280 278 276 268 268 276 273 272 276 270 280
312 311 309 297 305 297 306 306 306 305 303 301 299 299 299 296 292 291 290 290 287 286 289 282 274 281 278 276 275 276 278 277 278 278 277 276 275 273 275 264 285 268 271 272 273
306 308 304 304 300 304 302 299 299 300 300 299 297 297 295 296 293 291 290 289 290 285 281 286 281 284 273 276 273 273 278 277 278 275 274 274 272 271 270 273 270 268 268 271 266
306 299 303 299 300 303 298 303 299 295 296 296 296 296 295 293 286 282 281 280 283 284 284 280 280 279 280 282 282 284 278 278 277 280 280 273 280 276 274 270 266 264 253 264 265
303 302 300 301 301 299 300 300 301 297 296 297 292 291 294 288 286 284 283 281 280 282 284 282 284 281 280 284 281 280 281 283 282 281 279 279 279 278 278 273 271 270 269 288 260
307 306 305 307 301 302 300 298 301 296 296 295 295 295 290 289 294 287 293 285 286 286 285 286 285 284 284 287 284 282 281 281 281 281 281 279 278 279 279 276 270 268 267 271 265
305 303 303 306 306 299 298 296 301 295 295 297 298 298 298 292 291 290 293 291 291 291 289 288 288 286 286 284 282 282 281 282 282 280 280 279 277 277 275 273 274 271 277 282 263
308 307 306 304 306 302 304 303 301 299 298 299 299 299 299 299 297 296 295 296 294 288 288 291 291 292 289 286 280 278 278 276 278 277 275 276 276 276 275 272 271 277 271 267 264
306 304 306 305 303 302 300 299 300 300 296 296 292 300 299 292 294 296 298 294 293 290 291 293 295 293 290 288 287 285 284 283 283 283 274 276 278 276 273 272 272 272 272 276 302
307 304 301 307 303 302 299 299 299 291 296 291 284 294 297 297 297 295 294 294 294 294 291 292 293 293 293 291 286 285 285 285 283 282 278 281 275 274 274 275 276 274 271 273 266
304 307 304 303 300 297 297 297 296 296 296 296 295 295 290 291 293 294 293 293 293 291 291 292 293 291 293 292 291 291 290 286 284 283 281 281 279 276 276 274 271 270 270 269 270
310 304 304 301 299 298 296 295 293 291 295 293 289 293 292 292 296 294 295 288 289 292 294 296 293 293 294 293 295 295 291 278 275 275 272 271 276 277 276 277 276 275 273 271 269
304 304 299 299 297 295 292 291 290 290 292 295 296 296 296 294 298 300 299 297 293 293 293 293 294 295 294 294 294 293 288 286 286 278 278 275 268 267 270 271 272 273 273 273 273